Weather in Yushkovo

Russia / Smolensk Oblast     55°00′27″N   34°19′17″E
temp.,
°C
wind,
m/s
gust,
m/s
humid.,
%
clouds,
%
prec.,
mm/h
press.,
hPa
HPBL,
m
6 march, sat
sat600:00−7nnw3787100 0.2 1016258
03:00−10nnw259181 0.2 101898
06:00−11wnw23920 0.0 101858
09:00−9wnw36880 0.0 1019265
12:00−5wnw467533 0.0 10191065
15:00−4wnw476567 0.3 10171474
18:00−6w3781100 0.2 1017335
21:00−8wsw4108776 0.2 1016299
7 march, sun
sun700:00−7sw5137948 0.0 1013581
03:00−6sw7159274 0.4 10081000
06:00−5sw91692100 1.2 10031038
09:00−3wsw91792100 3.0 9981245
12:00−1wsw91889100 1.4 9951362
15:00−3nw71455100 2.4 9971855
18:00−5w512700 0.0 999911
21:00−7wsw5147931 0.1 998815
8 march, mon
mon800:00−5w6138195 0.2 9961226
03:00−9w6138898 0.6 998995
06:00−8nnw61279100 0.3 1001933
09:00−10wnw6138283 0.3 1004789
12:00−7wnw598186 0.1 1005923
15:00−6nw587993 0.2 10081073
18:00−7nw4889100 0.1 1009648
21:00−10nnw389499 0.2 1012306
9 march, tue
tue900:00−13nw259699 0.0 1014123
03:00−12nnw259599 0.1 1015253
06:00−13nnw2595100 0.0 1016244
09:00−15n369393 0.1 1018271
12:00−12nnw358295 0.0 1019536
15:00−10nnw357564 0.0 1020814
18:00−11nw228679 0.0 102055
21:00−13w129185 0.0 102220
10 march, wed
wed1000:00−12sw129494 0.0 102255
03:00−11sse239597 0.6 1021149
06:00−11ese3695100 1.4 1020292
09:00−12e5994100 3.1 1021355
12:00−12e5889100 0.6 1022490
15:00−10e4683100 0.7 1023615
18:00−13e368559 0.0 1024234
21:00−16ese389064 0.0 1026209